Atka, AK

6:57 AM HST on December 12, 2017 (GMT -1000)
Atka

Weather History for PAAK - August, 2013

Change the Weather History Date:

Monday, August 12, 2013

  Actual Average (PADK) Record (PADK)
Temperature  
Mean Temperature 52 °F -  
Max Temperature 55 °F 56 °F 66 °F (1983)
Min Temperature 48 °F 46 °F 39 °F (1971)
Degree Days  
Heating Degree Days 14    
Growing Degree Days 2 (Base 50)    
Moisture  
Dew Point 51 °F    
Average Humidity 93    
Maximum Humidity 100    
Minimum Humidity 82    
Precipitation  
Precipitation 0.00 in - - ()
Sea Level Pressure  
Sea Level Pressure 29.28 in    
Wind  
Wind Speed 12 mph (East)    
Max Wind Speed 20 mph    
Max Gust Speed 30 mph    
Visibility 4 miles    
Events      
Averages and records for this station are not official NWS values.
T = Trace of Precipitation, MM = Missing Value Source: NWS Daily Summary

Daily Weather History Graph

Daily Weather History Graph

Search for Another Location

Airport or City:

Trip Planner

Search our weather history database for the weather conditions in past years. The results will help you decide how hot, cold, wet, or windy it might be!

Date:

Astronomy

Aug. 12, 2013 Rise Set
Actual Time 7:16 AM HDT 10:06 PM HDT
Civil Twilight 6:37 AM HDT 10:44 PM HDT
Nautical Twilight 5:46 AM HDT 11:34 PM HDT
Astronomical Twilight 4:43 AM HDT 12:37 AM HDT
Moon 2:17 PM HDT No Moon Set
Length of Visible Light 16h 07m
Length of Day
14h 49m
Waxing Crescent, 33% of the Moon is Illuminated
Aug 12
Waxing Crescent
Aug 14
First Quarter
Aug 20
Full
Aug 28
Last Quarter
Sep 5
New

Hourly Weather History & Observations

Time (HDT) Temp. Dew Point Humidity Pressure Visibility Wind Dir Wind Speed Gust Speed Precip Events Conditions
12:16 AM 53.6 °F 50.0 °F 88% 29.43 in 8.0 mi East 17.3 mph 29.9 mph N/A   Overcast
12:36 AM 53.6 °F 50.0 °F 88% 29.42 in 10.0 mi ESE 18.4 mph 23.0 mph N/A   Overcast
12:56 AM 53.6 °F 51.8 °F 94% 29.42 in 5.0 mi ESE 17.3 mph 20.7 mph N/A   Overcast
1:16 AM 53.6 °F 51.8 °F 94% 29.41 in 5.0 mi ESE 13.8 mph 19.6 mph N/A   Overcast
1:36 AM 53.6 °F 51.8 °F 94% 29.39 in 3.0 mi ESE 17.3 mph 23.0 mph N/A   Overcast
1:56 AM 53.6 °F 51.8 °F 94% 29.38 in 2.5 mi East 15.0 mph - N/A   Overcast
2:16 AM 53.6 °F 51.8 °F 94% 29.38 in 3.0 mi East 15.0 mph 21.9 mph N/A   Overcast
2:36 AM 53.6 °F 51.8 °F 94% 29.36 in 2.0 mi ESE 12.7 mph - N/A   Overcast
2:56 AM 53.6 °F 51.8 °F 94% 29.35 in 2.0 mi ESE 12.7 mph - N/A   Overcast
3:16 AM 53.6 °F 51.8 °F 94% 29.35 in 2.0 mi ESE 12.7 mph - N/A   Overcast
3:36 AM 51.8 °F 51.8 °F 100% 29.34 in 1.8 mi ESE 12.7 mph - N/A   Overcast
3:56 AM 51.8 °F 51.8 °F 100% 29.33 in 0.5 mi ESE 12.7 mph - N/A   Overcast
4:16 AM 51.8 °F 51.8 °F 100% 29.32 in 0.5 mi ESE 10.4 mph - N/A   Overcast
4:36 AM 51.8 °F 51.8 °F 100% 29.31 in 0.2 mi East 9.2 mph - N/A   Overcast
4:56 AM 51.8 °F 51.8 °F 100% 29.30 in 0.8 mi East 10.4 mph - N/A   Overcast
5:16 AM 51.8 °F 50.0 °F 94% 29.30 in 1.2 mi ESE 9.2 mph - N/A   Overcast
5:36 AM 51.8 °F 51.8 °F 100% 29.30 in 3.0 mi East 9.2 mph - N/A   Overcast
5:56 AM 51.8 °F 51.8 °F 100% 29.29 in 2.5 mi East 8.1 mph - N/A   Overcast
6:16 AM 53.6 °F 51.8 °F 94% 29.29 in 2.0 mi East 9.2 mph - N/A   Overcast
6:36 AM 51.8 °F 51.8 °F 100% 29.28 in 2.0 mi ESE 9.2 mph - N/A   Overcast
6:56 AM 53.6 °F 51.8 °F 94% 29.28 in 3.0 mi ESE 11.5 mph - N/A   Overcast
7:16 AM 53.6 °F 51.8 °F 94% 29.27 in 3.0 mi SE 12.7 mph - N/A   Overcast
7:36 AM 53.6 °F 51.8 °F 94% 29.26 in 4.0 mi ESE 12.7 mph - N/A   Overcast
7:56 AM 53.6 °F 51.8 °F 94% 29.26 in 6.0 mi SE 11.5 mph - N/A   Mostly Cloudy
8:16 AM 53.6 °F 51.8 °F 94% 29.26 in 2.0 mi SE 9.2 mph - N/A   Overcast
8:36 AM 53.6 °F 51.8 °F 94% 29.26 in 0.5 mi ESE 10.4 mph - N/A   Overcast
8:56 AM 51.8 °F 51.8 °F 100% 29.26 in 3.0 mi ESE 11.5 mph - N/A   Overcast
9:16 AM 51.8 °F 51.8 °F 100% 29.26 in 2.5 mi ESE 8.1 mph - N/A   Overcast
9:36 AM 51.8 °F 50.0 °F 94% 29.25 in 3.0 mi ENE 10.4 mph - N/A   Overcast
9:56 AM 51.8 °F 50.0 °F 94% 29.25 in 5.0 mi East 10.4 mph - N/A   Overcast
10:16 AM 51.8 °F 50.0 °F 94% 29.25 in 3.0 mi ENE 8.1 mph - N/A   Overcast
10:36 AM 53.6 °F 51.8 °F 94% 29.25 in 5.0 mi East 10.4 mph - N/A   Overcast
10:56 AM 53.6 °F 51.8 °F 94% 29.25 in 3.0 mi East 10.4 mph - N/A   Overcast
11:16 AM 53.6 °F 51.8 °F 94% 29.25 in 3.0 mi East 9.2 mph - N/A   Overcast
11:36 AM 55.4 °F 53.6 °F 94% 29.25 in 2.5 mi SSE 8.1 mph - N/A   Overcast
11:56 AM 53.6 °F 51.8 °F 94% 29.25 in 2.5 mi East 8.1 mph - N/A   Overcast
12:16 PM 53.6 °F 53.6 °F 100% 29.25 in 7.0 mi ESE 5.8 mph - N/A   Overcast
12:36 PM 53.6 °F 53.6 °F 100% 29.25 in 7.0 mi SE 6.9 mph - N/A   Overcast
12:56 PM 53.6 °F 51.8 °F 94% 29.24 in 1.2 mi East 9.2 mph - N/A   Overcast
1:16 PM 53.6 °F 51.8 °F 94% 29.25 in 0.5 mi East 6.9 mph - N/A   Overcast
1:36 PM 53.6 °F 51.8 °F 94% 29.24 in 0.5 mi East 8.1 mph - N/A   Overcast
1:56 PM 53.6 °F 51.8 °F 94% 29.24 in 0.2 mi East 9.2 mph - N/A   Overcast
2:16 PM 53.6 °F 51.8 °F 94% 29.23 in 0.2 mi ENE 9.2 mph - N/A   Overcast
2:36 PM 53.6 °F 51.8 °F 94% 29.23 in 0.2 mi East 9.2 mph - N/A   Overcast
2:56 PM 53.6 °F 51.8 °F 94% 29.23 in 0.5 mi East 9.2 mph - N/A   Overcast
3:16 PM 53.6 °F 51.8 °F 94% 29.23 in 0.2 mi ENE 8.1 mph - N/A   Overcast
3:36 PM 53.6 °F 51.8 °F 94% 29.23 in 0.5 mi East 6.9 mph - N/A   Overcast
3:56 PM 53.6 °F 51.8 °F 94% 29.23 in 0.8 mi East 5.8 mph - N/A   Overcast
4:16 PM 53.6 °F 51.8 °F 94% 29.23 in 0.8 mi ENE 6.9 mph - N/A   Overcast
4:36 PM 53.6 °F 51.8 °F 94% 29.22 in 2.0 mi East 6.9 mph - N/A   Overcast
4:56 PM 53.6 °F 51.8 °F 94% 29.23 in 5.0 mi East 4.6 mph - N/A   Overcast
5:16 PM 53.6 °F 51.8 °F 94% 29.22 in 8.0 mi East 8.1 mph - N/A   Overcast
5:36 PM 55.4 °F 53.6 °F 94% 29.22 in 10.0 mi SSE 3.5 mph - N/A   Overcast
5:56 PM 53.6 °F 53.6 °F 100% 29.22 in 10.0 mi South 4.6 mph - N/A   Overcast
6:16 PM 53.6 °F 51.8 °F 94% 29.22 in 8.0 mi South 6.9 mph - N/A   Overcast
6:36 PM 53.6 °F 51.8 °F 94% 29.22 in 9.0 mi ESE 4.6 mph - N/A   Overcast
6:56 PM 53.6 °F 50.0 °F 88% 29.23 in 9.0 mi ESE 6.9 mph - N/A   Overcast
8:16 PM 51.8 °F 46.4 °F 82% 29.24 in 10.0 mi SW 16.1 mph - N/A   Overcast
8:36 PM 51.8 °F 46.4 °F 82% 29.25 in 10.0 mi WNW 5.8 mph - N/A   Overcast
8:56 PM 51.8 °F 46.4 °F 82% 29.26 in 10.0 mi WNW 6.9 mph - N/A   Overcast
9:16 PM 50.0 °F 46.4 °F 87% 29.26 in 10.0 mi WNW 11.5 mph - N/A   Overcast
9:36 PM 51.8 °F 46.4 °F 82% 29.27 in 5.0 mi WNW 11.5 mph - N/A   Overcast
9:56 PM 50.0 °F 46.4 °F 87% 29.28 in 9.0 mi WNW 13.8 mph - N/A   Overcast
10:16 PM 50.0 °F 46.4 °F 87% 29.30 in 10.0 mi WNW 16.1 mph 20.7 mph N/A   Overcast
10:36 PM 50.0 °F 46.4 °F 87% 29.31 in 10.0 mi NW 16.1 mph 19.6 mph N/A   Overcast
10:56 PM 50.0 °F 46.4 °F 87% 29.34 in 10.0 mi WNW 16.1 mph 24.2 mph N/A   Overcast
11:16 PM 48.2 °F 46.4 °F 93% 29.34 in 10.0 mi NW 17.3 mph 23.0 mph N/A   Overcast
11:36 PM 48.2 °F 44.6 °F 87% 29.35 in 10.0 mi NW 19.6 mph 26.5 mph N/A   Overcast
11:56 PM 48.2 °F 44.6 °F 87% 29.35 in 10.0 mi WNW 16.1 mph 23.0 mph N/A   Overcast